GW3707 Weather Reports


time (UTC)temp
F
wind
direction
speed
knots
gust
knots
rain 1hr
in
rain 24hr
in
rain mn
in
humidity
%
barometer
mb
20260509201517 93 134 0.0 2.6 0.00 0.00 0.00 48 1010.6
20260509200537 91 57 0.0 4.3 0.00 0.00 0.00 44 1010.7
20260509195517 91 325 0.9 3.5 0.00 0.00 0.00 46 1010.8
20260509194536 90 114 0.9 4.3 0.00 0.00 0.00 47 1010.9
20260509193517 91 299 0.9 3.5 0.00 0.00 0.00 47 1010.9
20260509192557 91 290 1.7 6.1 0.00 0.00 0.00 46 1011.0
20260509191517 92 285 0.9 4.3 0.00 0.00 0.00 48 1011.1
20260509190516 90 249 0.0 2.6 0.00 0.00 0.00 51 1011.2
20260509185516 89 53 0.9 3.5 0.00 0.00 0.00 48 1011.3
20260509184517 89 292 1.7 5.2 0.00 0.00 0.00 49 1011.4
20260509183516 89 305 1.7 5.2 0.00 0.00 0.00 50 1011.6
20260509182517 90 286 2.6 7.0 0.00 0.00 0.00 49 1011.6
20260509181516 89 281 1.7 7.0 0.00 0.00 0.00 50 1011.7
20260509180517 88 302 0.9 4.3 0.00 0.00 0.00 51 1011.8
20260509175517 88 283 0.9 6.1 0.00 0.00 0.00 51 1012.0
20260509174517 87 293 1.7 6.1 0.00 0.00 0.00 50 1012.1
20260509173537 87 327 2.6 5.2 0.00 0.00 0.00 49 1012.1
20260509172516 87 332 0.0 2.6 0.00 0.00 0.00 49 1012.2
20260509171516 86 285 0.9 4.3 0.00 0.00 0.00 52 1012.3
20260509170516 86 306 2.6 6.1 0.00 0.00 0.00 52 1012.2
20260509165516 86 280 0.9 4.3 0.00 0.00 0.00 54 1012.3
20260509164516 86 300 1.7 6.1 0.00 0.00 0.00 56 1012.4
20260509163516 86 302 0.9 3.5 0.00 0.00 0.00 55 1012.6
20260509162516 85 283 0.9 3.5 0.00 0.00 0.00 59 1012.5
20260509161516 84 297 0.9 3.5 0.00 0.00 0.00 60 1012.5
20260509160516 83 287 0.9 5.2 0.00 0.00 0.00 61 1012.5
20260509155516 82 303 0.0 4.3 0.00 0.00 0.00 64 1012.5
20260509154516 81 305 0.9 7.0 0.00 0.00 0.00 62 1012.6
20260509153516 81 332 1.7 5.2 0.00 0.00 0.00 61 1012.5
20260509152516 81 309 2.6 5.2 0.00 0.00 0.00 61 1012.4
20260509151516 81 305 2.6 7.0 0.00 0.00 0.00 61 1012.4
20260509150517 80 39 2.6 6.1 0.00 0.00 0.00 62 1012.3
20260509145516 80 303 2.6 7.8 0.00 0.00 0.00 63 1012.4
20260509144516 80 296 2.6 6.1 0.00 0.00 0.00 63 1012.4
20260509143516 80 47 2.6 7.8 0.00 0.00 0.00 64 1012.3
20260509142517 79 336 0.0 4.3 0.00 0.00 0.00 69 1012.3
20260509141516 77 5 0.0 6.1 0.00 0.00 0.00 73 1012.2
20260509140516 76 300 2.6 7.8 0.00 0.00 0.00 73 1012.0
20260509135617 75 324 3.5 10.4 0.00 0.00 0.00 76 1011.8
20260509134516 74 5 4.3 12.2 0.00 0.00 0.00 78 1011.7
20260509133536 74 324 3.5 10.4 0.00 0.00 0.00 78 1011.7
20260509132536 73 321 3.5 7.8 0.00 0.00 0.00 79 1011.6
20260509131516 73 42 6.1 12.2 0.00 0.00 0.00 79 1011.3
20260509130516 72 24 4.3 10.4 0.00 0.00 0.00 79 1011.2
20260509125516 71 302 3.5 10.4 0.00 0.00 0.00 80 1011.2
20260509124516 71 305 3.5 7.8 0.00 0.00 0.00 79 1011.4
20260509123516 71 302 2.6 5.2 0.00 0.00 0.00 81 1011.3
20260509122516 70 301 2.6 6.1 0.00 0.00 0.00 83 1011.3
20260509121516 70 302 1.7 3.5 0.00 0.00 0.00 85 1011.2
20260509120516 70 40 2.6 5.2 0.00 0.00 0.00 90 1011.2
20260509115516 70 352 0.9 3.5 0.00 0.00 0.00 92 1011.4
20260509114516 70 301 0.9 2.6 0.00 0.00 0.00 91 1011.4
20260509113516 70 293 1.7 6.1 0.00 0.00 0.00 92 1011.6
20260509112516 70 297 1.7 4.3 0.00 0.00 0.00 93 1011.8
20260509111516 70 297 3.5 7.0 0.00 0.00 0.00 93 1011.7
20260509110516 70 299 4.3 9.6 0.00 0.00 0.00 94 1011.4
20260509105536 70 300 4.3 8.7 0.00 0.00 0.00 95 1011.1
20260509104516 70 302 3.5 9.6 0.00 0.00 0.00 96 1010.7
20260509103516 69 272 0.9 8.7 0.00 0.00 0.00 96 1010.0
20260509102516 69 302 1.7 4.3 0.00 0.00 0.00 97 1010.1
20260509101536 69 140 1.7 7.0 0.00 0.00 0.00 97 1009.4
20260509100516 69 141 2.6 7.8 0.00 0.00 0.00 96 1009.2
20260509095536 69 122 4.3 8.7 0.00 0.00 0.00 97 1008.9
20260509094536 69 139 4.3 9.6 0.00 0.00 0.00 97 1008.8
20260509093516 69 142 3.5 9.6 0.00 0.00 0.00 97 1008.9
20260509092536 69 138 2.6 7.0 0.00 0.00 0.00 97 1009.3
20260509091516 69 139 2.6 7.0 0.00 0.00 0.00 97 1009.7
20260509090516 69 138 0.9 4.3 0.00 0.00 0.00 97 1010.0
20260509085516 68 149 0.9 4.3 0.00 0.00 0.00 96 1010.4
20260509084516 68 140 1.7 5.2 0.00 0.00 0.00 96 1010.4
20260509083516 69 147 1.7 5.2 0.00 0.00 0.00 96 1010.7
20260509082515 69 146 1.7 7.0 0.00 0.00 0.00 95 1010.7
20260509081516 69 137 1.7 5.2 0.00 0.00 0.00 95 1011.4
20260509080516 69 138 1.7 7.0 0.00 0.00 0.00 94 1011.8
20260509075515 69 152 0.9 2.6 0.00 0.00 0.00 94 1012.8
20260509074515 70 280 0.0 3.5 0.00 0.00 0.00 94 1013.3
20260509073516 69 298 7.0 13.0 0.00 0.00 0.00 95 1013.9
20260509072518 68 302 5.2 8.7 0.00 0.00 0.00 96 1013.9
20260509071518 68 289 2.6 4.3 0.00 0.00 0.00 96 1013.4
20260509070538 68 299 2.6 6.1 0.00 0.00 0.00 96 1013.3
20260509065538 68 317 0.9 4.3 0.00 0.00 0.00 96 1013.4
20260509064518 67 251 0.9 2.6 0.00 0.00 0.00 97 1013.0
20260509063518 67 209 0.0 2.6 0.00 0.00 0.00 97 1012.8
20260509062519 67 155 0.0 0.9 0.00 0.00 0.00 96 1012.5
20260509061538 67 155 0.0 0.9 0.00 0.00 0.00 96 1012.3
20260509060518 67 0.0 0.0 0.00 0.00 0.00 95 1011.9
20260509055518 68 0.0 0.0 0.00 0.00 0.00 95 1012.0
20260509054518 68 0.0 0.9 0.00 0.00 0.00 95 1011.9
20260509053558 68 119 0.0 1.7 0.00 0.00 0.00 95 1011.9
20260509052518 68 0.0 0.9 0.00 0.00 0.00 95 1012.1
20260509051518 68 119 0.0 2.6 0.00 0.00 0.00 95 1012.1
20260509050518 68 91 0.9 2.6 0.00 0.00 0.00 95 1012.4
20260509045518 68 101 1.7 2.6 0.00 0.00 0.00 94 1012.0
20260509044537 69 116 0.0 1.7 0.00 0.00 0.00 94 1011.9
20260509043518 69 124 0.9 1.7 0.00 0.00 0.00 93 1011.7
20260509042558 69 124 0.9 1.7 0.00 0.00 0.00 93 1011.7
20260509041518 69 126 0.0 1.7 0.00 0.00 0.00 93 1011.8
20260509040518 70 138 0.0 1.7 0.00 0.00 0.00 92 1011.7
20260509035518 70 142 0.9 4.3 0.00 0.00 0.00 92 1011.6
20260509034539 70 152 0.0 1.7 0.00 0.00 0.00 91 1011.5
20260509033517 71 146 0.0 1.7 0.00 0.00 0.00 91 1011.5
20260509032518 71 142 0.9 2.6 0.00 0.00 0.00 90 1011.6
20260509031538 71 134 0.0 1.7 0.00 0.00 0.00 90 1011.5
20260509030538 72 150 0.0 0.9 0.00 0.00 0.00 90 1011.6
20260509025517 72 152 0.0 2.6 0.00 0.00 0.00 89 1011.2
20260509024518 72 140 0.9 4.3 0.00 0.00 0.00 89 1010.9
20260509023518 72 128 0.9 3.5 0.00 0.00 0.00 88 1010.9
20260509022518 72 141 0.0 4.3 0.00 0.00 0.00 88 1010.9
20260509021518 73 144 0.9 4.3 0.00 0.00 0.00 87 1011.0
20260509020517 73 148 0.9 2.6 0.00 0.00 0.00 87 1010.8
20260509015518 73 145 0.9 2.6 0.00 0.00 0.00 87 1010.7
20260509014518 73 147 0.9 3.5 0.00 0.00 0.00 87 1010.7
20260509013538 73 148 0.9 4.3 0.00 0.00 0.00 86 1010.6
20260509012518 73 133 0.0 2.6 0.00 0.00 0.00 86 1010.4
20260509011516 74 122 0.9 4.3 0.00 0.00 0.00 86 1010.2
20260509010518 74 137 0.9 4.3 0.00 0.00 0.00 85 1010.0
20260509005517 75 133 0.9 5.2 0.00 0.00 0.00 84 1009.9
20260509004517 75 129 0.0 1.7 0.00 0.00 0.00 83 1009.8
20260509003517 76 130 0.9 3.5 0.00 0.00 0.00 81 1009.9
20260509002518 76 120 0.0 0.9 0.00 0.00 0.00 81 1010.0
20260509001518 77 150 0.9 4.3 0.00 0.00 0.00 80 1010.1
20260509000518 78 124 0.0 0.9 0.00 0.00 0.00 78 1010.1
20260508235516 79 146 0.9 4.3 0.00 0.00 0.00 76 1010.0
20260508234517 80 136 0.9 5.2 0.00 0.00 0.00 75 1009.9
20260508233517 80 146 1.7 6.1 0.00 0.00 0.00 76 1009.7
20260508232517 79 151 1.7 8.7 0.00 0.00 0.00 77 1009.5
20260508231517 79 134 2.6 9.6 0.00 0.00 0.00 77 1009.7
20260508230517 80 139 4.3 8.7 0.00 0.00 0.00 74 1009.9
20260508225517 80 145 1.7 7.0 0.00 0.00 0.00 74 1009.9
20260508224538 79 141 1.7 7.0 0.00 0.00 0.00 75 1009.8
20260508223518 80 141 2.6 8.7 0.00 0.00 0.00 74 1009.9
20260508222517 80 134 0.9 7.0 0.00 0.00 0.00 75 1010.3
20260508221517 79 136 2.6 6.1 0.00 0.00 0.00 75 1010.3
20260508220518 79 124 0.9 5.2 0.00 0.00 0.00 75 1010.5
20260508215517 79 124 0.9 5.2 0.00 0.00 0.00 75 1010.4
20260508214518 79 159 0.0 3.5 0.00 0.00 0.00 75 1010.6
20260508213517 77 237 0.0 2.6 0.00 0.00 0.00 77 1010.8
20260508212517 76 130 2.6 6.1 0.00 0.00 0.00 78 1010.9
20260508211518 74 135 0.9 7.8 0.00 0.00 0.00 81 1011.1
20260508210517 73 127 3.5 8.7 0.00 0.00 0.00 82 1010.9
20260508205518 72 117 6.1 13.0 0.00 0.00 0.00 81 1010.8
20260508204517 72 127 5.2 12.2 0.00 0.00 0.00 81 1010.9
20260508203517 71 124 5.2 10.4 0.00 0.00 0.00 81 1011.1
20260508202517 71 112 7.0 12.2 0.00 0.00 0.00 81 1011.6